| time (UTC) | temp C | wind direction | speed KPH | gust KPH | rain 1hr cm | rain 24hr cm | rain mn cm | humidity % | barometer mb |
| 20260508094514 | 6 | 341 | 0.0 | 0.0 | 0.00 | 0.10 | 0.03 | 91 | 1013.3 |
| 20260508093016 | 6 | 341 | 0.0 | 0.0 | 0.00 | 0.10 | 0.03 | 91 | 1013.2 |
| 20260508091519 | 6 | 341 | 0.0 | 0.0 | 0.00 | 0.10 | 0.03 | 91 | 1012.9 |
| 20260508090022 | 6 | 53 | 0.0 | 3.2 | 0.00 | 0.30 | 0.03 | 91 | 1012.7 |
| 20260508084510 | 6 | 61 | 0.0 | 1.6 | 0.00 | 0.30 | 0.03 | 91 | 1012.9 |
| 20260508083009 | 6 | 61 | 0.0 | 0.0 | 0.00 | 0.30 | 0.03 | 91 | 1012.8 |
| 20260508081510 | 6 | 61 | 0.0 | 0.0 | 0.00 | 0.30 | 0.03 | 90 | 1012.9 |
| 20260508080008 | 6 | 61 | 0.0 | 0.0 | 0.03 | 0.48 | 0.03 | 90 | 1012.7 |
| 20260508074508 | 6 | 61 | 0.0 | 0.0 | 0.03 | 0.48 | 0.03 | 89 | 1013.0 |
| 20260508073007 | 6 | 61 | 0.0 | 0.0 | 0.03 | 0.48 | 0.03 | 88 | 1013.2 |
| 20260508071515 | 7 | 61 | 0.0 | 3.2 | 0.03 | 0.48 | 0.03 | 87 | 1013.3 |
| 20260508070005 | 7 | 49 | 0.0 | 1.6 | 0.00 | 0.56 | 0.00 | 85 | 1013.4 |
| 20260508064503 | 7 | 59 | 0.0 | 3.2 | 0.00 | 0.56 | 0.00 | 80 | 1013.5 |
| 20260508063000 | 8 | 24 | 1.6 | 6.4 | 0.00 | 0.56 | 0.00 | 72 | 1013.4 |
| 20260508061558 | 7 | 355 | 0.0 | 0.0 | 0.00 | 0.56 | 0.00 | 82 | 1012.5 |
| 20260508060053 | 6 | 51 | 0.0 | 0.0 | 0.00 | 0.56 | 0.00 | 89 | 1011.3 |
| 20260508054550 | 6 | 51 | 0.0 | 0.0 | 0.00 | 0.56 | 0.00 | 89 | 1011.1 |
| 20260508053049 | 5 | 51 | 0.0 | 0.0 | 0.00 | 0.56 | 0.00 | 90 | 1011.2 |
| 20260508051545 | 5 | 51 | 0.0 | 0.0 | 0.00 | 0.56 | 0.00 | 90 | 1011.2 |
| 20260508050045 | 5 | 51 | 0.0 | 0.0 | 0.00 | 0.56 | 0.00 | 89 | 1011.1 |
| 20260508044543 | 5 | 51 | 0.0 | 0.0 | 0.00 | 0.56 | 0.00 | 88 | 1011.0 |
| 20260508043045 | 5 | 51 | 0.0 | 0.0 | 0.00 | 0.56 | 0.00 | 87 | 1011.0 |
| 20260508041539 | 5 | 51 | 0.0 | 0.0 | 0.00 | 0.56 | 0.00 | 87 | 1011.0 |
| 20260508040036 | 5 | 51 | 0.0 | 0.0 | 0.00 | 0.56 | 0.00 | 85 | 1011.0 |
| 20260508034534 | 6 | 51 | 0.0 | 0.0 | 0.00 | 0.56 | 0.56 | 84 | 1011.1 |
| 20260508033034 | 6 | 51 | 0.0 | 0.0 | 0.00 | 0.56 | 0.56 | 84 | 1011.0 |
| 20260508031532 | 6 | 51 | 0.0 | 0.0 | 0.00 | 0.56 | 0.56 | 83 | 1011.0 |
| 20260508030031 | 6 | 51 | 0.0 | 0.0 | 0.00 | 0.56 | 0.56 | 81 | 1011.1 |
| 20260508024535 | 6 | 51 | 0.0 | 0.0 | 0.00 | 0.56 | 0.56 | 79 | 1011.0 |
| 20260508023028 | 7 | 51 | 0.0 | 0.0 | 0.00 | 0.56 | 0.56 | 78 | 1010.9 |
| 20260508021532 | 7 | 51 | 0.0 | 0.0 | 0.00 | 0.56 | 0.56 | 76 | 1010.9 |
| 20260508020020 | 7 | 51 | 0.0 | 0.0 | 0.00 | 0.61 | 0.56 | 74 | 1010.8 |
| 20260508014518 | 8 | 51 | 0.0 | 0.0 | 0.00 | 0.61 | 0.56 | 72 | 1010.9 |
| 20260508013024 | 8 | 51 | 0.0 | 0.0 | 0.00 | 0.61 | 0.56 | 68 | 1010.8 |
| 20260508011515 | 9 | 51 | 0.0 | 0.0 | 0.00 | 0.61 | 0.56 | 65 | 1010.6 |
| 20260508010015 | 10 | 51 | 0.0 | 0.0 | 0.00 | 0.61 | 0.56 | 62 | 1010.5 |
| 20260508004521 | 10 | 51 | 0.0 | 0.0 | 0.00 | 0.61 | 0.56 | 58 | 1010.3 |
| 20260508003010 | 11 | 51 | 0.0 | 0.0 | 0.00 | 0.61 | 0.56 | 55 | 1010.0 |
| 20260508001517 | 12 | 51 | 0.0 | 0.0 | 0.00 | 0.61 | 0.56 | 53 | 1009.7 |
| 20260508000010 | 12 | 51 | 0.0 | 0.0 | 0.00 | 0.61 | 0.56 | 51 | 1009.8 |
| 20260507234510 | 13 | 51 | 0.0 | 0.0 | 0.00 | 0.61 | 0.56 | 52 | 1009.6 |
| 20260507233010 | 14 | 51 | 0.0 | 0.0 | 0.00 | 0.61 | 0.56 | 49 | 1009.4 |
| 20260507231508 | 15 | 5 | 0.0 | 1.6 | 0.00 | 0.61 | 0.56 | 43 | 1009.3 |
| 20260507230006 | 15 | 14 | 0.0 | 3.2 | 0.00 | 0.61 | 0.56 | 41 | 1009.1 |
| 20260507224505 | 15 | 22 | 0.0 | 4.8 | 0.00 | 0.61 | 0.56 | 42 | 1009.0 |
| 20260507223006 | 15 | 59 | 0.0 | 3.2 | 0.00 | 0.61 | 0.56 | 39 | 1009.0 |
| 20260507221510 | 15 | 59 | 0.0 | 6.4 | 0.00 | 0.61 | 0.56 | 36 | 1009.1 |
| 20260507220004 | 16 | 61 | 1.6 | 4.8 | 0.00 | 0.61 | 0.56 | 37 | 1009.0 |
| 20260507214503 | 16 | 286 | 0.0 | 3.2 | 0.00 | 0.61 | 0.56 | 45 | 1008.9 |
| 20260507213003 | 15 | 45 | 1.6 | 4.8 | 0.00 | 0.61 | 0.56 | 36 | 1008.8 |
| 20260507211502 | 16 | 90 | 0.0 | 8.0 | 0.00 | 0.61 | 0.56 | 35 | 1008.8 |
| 20260507210002 | 16 | 34 | 0.0 | 11.3 | 0.00 | 0.61 | 0.56 | 35 | 1008.8 |
| 20260507204500 | 16 | 86 | 0.0 | 8.0 | 0.00 | 0.61 | 0.56 | 34 | 1008.7 |
| 20260507203103 | 16 | 78 | 0.0 | 6.4 | 0.00 | 0.61 | 0.56 | 34 | 1008.6 |
| 20260507201600 | 16 | 274 | 1.6 | 6.4 | 0.00 | 0.61 | 0.56 | 34 | 1008.6 |
| 20260507200056 | 17 | 274 | 1.6 | 4.8 | 0.00 | 0.61 | 0.56 | 34 | 1008.7 |
| 20260507194628 | 17 | 275 | 3.2 | 8.0 | 0.00 | 0.64 | 0.56 | 34 | 1008.9 |
| 20260507193052 | 17 | 199 | 1.6 | 6.4 | 0.00 | 0.64 | 0.56 | 41 | 1009.0 |
| 20260507191552 | 17 | 27 | 3.2 | 6.4 | 0.00 | 0.64 | 0.56 | 39 | 1009.3 |
| 20260507190049 | 17 | 265 | 0.0 | 6.4 | 0.00 | 0.64 | 0.56 | 38 | 1009.5 |
| 20260507184550 | 17 | 53 | 4.8 | 9.7 | 0.00 | 0.66 | 0.56 | 36 | 1009.6 |
| 20260507183045 | 17 | 268 | 1.6 | 6.4 | 0.00 | 0.66 | 0.56 | 38 | 1009.9 |
| 20260507181544 | 17 | 267 | 0.0 | 8.0 | 0.00 | 0.66 | 0.56 | 36 | 1009.9 |
| 20260507180043 | 17 | 265 | 1.6 | 6.4 | 0.00 | 0.66 | 0.56 | 38 | 1010.1 |
| 20260507174548 | 17 | 284 | 3.2 | 6.4 | 0.00 | 0.71 | 0.56 | 40 | 1010.2 |
| 20260507173041 | 17 | 46 | 1.6 | 6.4 | 0.00 | 0.71 | 0.56 | 38 | 1010.5 |
| 20260507171546 | 16 | 9 | 1.6 | 3.2 | 0.00 | 0.71 | 0.56 | 43 | 1010.6 |
| 20260507170040 | 16 | 118 | 3.2 | 11.3 | 0.00 | 0.71 | 0.56 | 38 | 1011.0 |
| 20260507164535 | 16 | 285 | 0.0 | 8.0 | 0.00 | 0.76 | 0.56 | 50 | 1011.1 |
| 20260507163034 | 16 | 265 | 0.0 | 6.4 | 0.00 | 0.76 | 0.56 | 47 | 1011.4 |
| 20260507161539 | 16 | 265 | 1.6 | 4.8 | 0.00 | 0.76 | 0.56 | 43 | 1011.4 |
| 20260507160030 | 15 | 265 | 1.6 | 6.4 | 0.00 | 0.76 | 0.56 | 45 | 1011.7 |
| 20260507154534 | 15 | 63 | 1.6 | 8.0 | 0.00 | 0.76 | 0.56 | 43 | 1011.7 |
| 20260507153037 | 15 | 309 | 0.0 | 4.8 | 0.00 | 0.76 | 0.56 | 49 | 1012.0 |
| 20260507151525 | 14 | 9 | 1.6 | 6.4 | 0.00 | 0.76 | 0.56 | 49 | 1012.1 |
| 20260507150024 | 14 | 17 | 0.0 | 6.4 | 0.00 | 0.76 | 0.56 | 61 | 1012.1 |
| 20260507144518 | 13 | 284 | 1.6 | 4.8 | 0.00 | 0.76 | 0.56 | 60 | 1012.0 |
| 20260507143023 | 12 | 9 | 1.6 | 4.8 | 0.00 | 0.76 | 0.56 | 65 | 1012.0 |
| 20260507141516 | 12 | 53 | 1.6 | 6.4 | 0.00 | 0.76 | 0.56 | 65 | 1012.1 |
| 20260507140015 | 11 | 23 | 1.6 | 8.0 | 0.00 | 0.76 | 0.56 | 69 | 1012.0 |
| 20260507134514 | 11 | 39 | 1.6 | 4.8 | 0.00 | 0.76 | 0.56 | 76 | 1012.4 |
| 20260507133013 | 10 | 49 | 0.0 | 3.2 | 0.00 | 0.76 | 0.56 | 80 | 1012.2 |
| 20260507131517 | 11 | 349 | 0.0 | 3.2 | 0.00 | 0.76 | 0.56 | 85 | 1012.2 |
| 20260507130021 | 10 | 28 | 0.0 | 4.8 | 0.00 | 0.76 | 0.56 | 84 | 1012.1 |
| 20260507124511 | 10 | 26 | 0.0 | 3.2 | 0.00 | 0.76 | 0.56 | 88 | 1012.3 |
| 20260507123010 | 9 | 32 | 0.0 | 0.0 | 0.00 | 0.76 | 0.56 | 91 | 1012.1 |
| 20260507121507 | 9 | 32 | 0.0 | 0.0 | 0.00 | 0.76 | 0.56 | 92 | 1012.1 |
| 20260507120005 | 9 | 61 | 0.0 | 3.2 | 0.00 | 0.76 | 0.56 | 93 | 1012.2 |
| 20260507114503 | 9 | 61 | 0.0 | 0.0 | 0.00 | 0.76 | 0.56 | 94 | 1011.9 |
| 20260507113001 | 9 | 61 | 0.0 | 0.0 | 0.00 | 0.76 | 0.56 | 94 | 1011.6 |
| 20260507111603 | 9 | 61 | 0.0 | 0.0 | 0.00 | 0.76 | 0.56 | 94 | 1011.7 |
| 20260507110059 | 9 | 61 | 0.0 | 0.0 | 0.00 | 0.76 | 0.56 | 94 | 1011.3 |
| 20260507104556 | 9 | 61 | 0.0 | 0.0 | 0.00 | 0.76 | 0.56 | 94 | 1011.2 |
| 20260507103053 | 9 | 61 | 0.0 | 0.0 | 0.03 | 0.76 | 0.56 | 94 | 1010.9 |
| 20260507101555 | 9 | 61 | 0.0 | 0.0 | 0.03 | 0.76 | 0.56 | 94 | 1010.7 |
| 20260507100050 | 9 | 61 | 0.0 | 0.0 | 0.08 | 0.76 | 0.56 | 94 | 1010.7 |